KD2DXJ Weather Reports


Display with metric or nautical units.
time (UTC)temp
F
wind
direction
speed
MPH
gust
MPH
rain 1hr
in
rain 24hr
in
rain mn
in
humidity
%
barometer
mb
20260504045525 46 246 2.0 3.0 0.00 0.00 0.00 92 1006.9
20260504045020 46 249 4.0 4.0 0.00 0.00 0.00 92 1007.0
20260504044518 46 246 1.0 2.0 0.00 0.00 0.00 91 1007.0
20260504044015 46 246 2.0 3.0 0.00 0.00 0.00 91 1007.0
20260504043511 46 248 2.0 2.0 0.00 0.00 0.00 90 1007.3
20260504043009 46 246 2.0 2.0 0.00 0.00 0.00 90 1007.1
20260504042506 46 253 2.0 2.0 0.00 0.00 0.00 90 1007.3
20260504042003 45 254 1.0 2.0 0.00 0.00 0.00 90 1007.3
20260504041459 46 238 2.0 3.0 0.00 0.00 0.00 90 1007.1
20260504040955 46 238 2.0 2.0 0.00 0.00 0.00 89 1007.1
20260504040452 46 235 2.0 3.0 0.00 0.00 0.00 89 1007.0
20260504035948 46 260 1.0 2.0 0.00 0.00 0.00 89 1007.1
20260504035446 46 256 1.0 2.0 0.00 0.00 0.00 88 1007.1
20260504034942 46 256 2.0 2.0 0.00 0.00 0.00 88 1006.9
20260504034440 46 256 2.0 3.0 0.00 0.00 0.00 88 1007.1
20260504033937 46 245 2.0 3.0 0.00 0.00 0.00 88 1007.2
20260504033434 46 244 5.0 8.0 0.00 0.00 0.00 87 1007.3
20260504032931 46 237 3.0 6.0 0.00 0.00 0.00 87 1007.3
20260504032428 46 265 4.0 4.0 0.00 0.00 0.00 86 1007.2
20260504031925 46 254 2.0 4.0 0.00 0.00 0.00 86 1007.3
20260504031422 46 243 4.0 7.0 0.00 0.00 0.00 85 1007.2
20260504030919 46 238 3.0 4.0 0.00 0.00 0.00 83 1007.3
20260504030416 46 241 4.0 4.0 0.00 0.00 0.00 82 1007.4
20260504025912 46 255 3.0 3.0 0.00 0.00 0.00 81 1007.3
20260504025409 46 238 3.0 4.0 0.00 0.00 0.00 79 1007.3
20260504024906 47 238 4.0 6.0 0.00 0.00 0.00 76 1007.5
20260504024402 48 256 4.0 7.0 0.00 0.00 0.00 71 1007.4
20260504023900 48 242 3.0 4.0 0.00 0.00 0.00 68 1007.5
20260504023356 48 237 3.0 3.0 0.00 0.00 0.00 67 1007.5
20260504022851 48 253 4.0 6.0 0.00 0.00 0.00 66 1007.5
20260504022348 48 235 1.0 1.0 0.00 0.00 0.00 64 1007.6
20260504021845 48 253 3.0 3.0 0.00 0.00 0.00 64 1007.6
20260504021342 48 238 1.0 2.0 0.00 0.00 0.00 62 1007.7
20260504020839 48 253 1.0 2.0 0.00 0.00 0.00 61 1007.7
20260504020336 48 253 2.0 2.0 0.00 0.00 0.00 60 1007.9
20260504015832 48 253 1.0 2.0 0.00 0.00 0.00 59 1007.8
20260504015328 48 253 2.0 3.0 0.00 0.00 0.00 57 1007.9
20260504014825 48 253 2.0 2.0 0.00 0.00 0.00 58 1007.9
20260504014320 48 253 1.0 2.0 0.00 0.00 0.00 57 1007.9
20260504013819 48 253 2.0 2.0 0.00 0.00 0.00 56 1008.1
20260504013316 48 253 2.0 2.0 0.00 0.00 0.00 55 1008.0
20260504012813 48 254 1.0 3.0 0.00 0.00 0.00 56 1007.8
20260504012311 48 239 3.0 3.0 0.00 0.00 0.00 53 1008.1
20260504011808 48 256 2.0 3.0 0.00 0.00 0.00 56 1008.0
20260504011304 48 262 3.0 4.0 0.00 0.00 0.00 53 1007.8
20260504010800 48 260 2.0 3.0 0.00 0.00 0.00 51 1007.9
20260504010256 48 255 3.0 4.0 0.00 0.00 0.00 50 1007.9
20260504005753 49 260 2.0 3.0 0.00 0.00 0.00 48 1007.7
20260504005249 49 243 3.0 3.0 0.00 0.00 0.00 46 1007.9
20260504004747 49 241 4.0 4.0 0.00 0.00 0.00 46 1007.6
20260504004244 49 236 3.0 4.0 0.00 0.00 0.00 44 1007.7
20260504003740 49 274 3.0 4.0 0.00 0.00 0.00 45 1007.9
20260504003238 49 238 4.0 4.0 0.00 0.00 0.00 45 1007.7
20260504002734 49 243 4.0 4.0 0.00 0.00 0.00 45 1007.7
20260504002231 49 248 5.0 7.0 0.00 0.00 0.00 45 1007.6
20260504001729 49 250 4.0 4.0 0.00 0.00 0.00 45 1007.6
20260504001226 49 243 3.0 3.0 0.00 0.00 0.00 45 1007.9
20260504000722 49 258 3.0 3.0 0.00 0.00 0.00 45 1007.7
20260504000219 50 248 4.0 6.0 0.00 0.00 0.00 45 1007.6
20260503235718 50 297 3.0 6.0 0.00 0.00 0.00 44 1007.9
20260503235214 49 259 3.0 4.0 0.00 0.00 0.00 44 1007.8
20260503234712 50 251 3.0 3.0 0.00 0.00 0.00 45 1007.7
20260503234210 50 246 3.0 3.0 0.00 0.00 0.00 44 1007.7
20260503233707 50 247 3.0 4.0 0.00 0.00 0.00 44 1007.9
20260503233203 50 243 1.0 2.0 0.00 0.00 0.00 45 1007.8
20260503232700 50 252 4.0 4.0 0.00 0.00 0.00 43 1007.9
20260503232157 51 234 3.0 3.0 0.00 0.00 0.00 44 1007.8
20260503231655 51 264 3.0 4.0 0.00 0.00 0.00 44 1007.8
20260503231151 51 264 4.0 6.0 0.00 0.00 0.00 43 1007.9
20260503230648 51 262 3.0 3.0 0.00 0.00 0.00 45 1007.8
20260503230145 51 268 1.0 1.0 0.00 0.00 0.00 44 1007.9
20260503225642 52 246 6.0 6.0 0.00 0.00 0.00 41 1007.8
20260503225142 51 257 4.0 4.0 0.00 0.00 0.00 43 1008.0
20260503224640 51 262 1.0 1.0 0.00 0.00 0.00 43 1007.9
20260503224138 51 257 4.0 7.0 0.00 0.00 0.00 42 1007.9
20260503223636 52 256 2.0 3.0 0.00 0.00 0.00 42 1008.0
20260503223132 52 265 1.0 3.0 0.00 0.00 0.00 43 1007.9
20260503222629 51 241 3.0 4.0 0.00 0.00 0.00 42 1008.0
20260503222126 51 258 3.0 3.0 0.00 0.00 0.00 45 1007.9
20260503221625 51 252 3.0 3.0 0.00 0.00 0.00 45 1008.2
20260503221122 51 249 4.0 4.0 0.00 0.00 0.00 46 1008.1
20260503220619 51 241 6.0 7.0 0.00 0.00 0.00 45 1008.1
20260503220115 52 252 5.0 6.0 0.00 0.00 0.00 44 1008.1
20260503215612 52 246 5.0 7.0 0.00 0.00 0.00 43 1008.1
20260503215109 52 223 2.0 4.0 0.00 0.00 0.00 44 1008.1
20260503214608 52 252 3.0 4.0 0.00 0.00 0.00 44 1008.3
20260503214103 52 248 5.0 6.0 0.00 0.00 0.00 43 1008.1
20260503213602 52 237 3.0 4.0 0.00 0.00 0.00 44 1008.3
20260503213058 52 234 6.0 9.0 0.00 0.00 0.00 45 1008.3
20260503212556 51 245 5.0 7.0 0.00 0.00 0.00 44 1008.4
20260503212053 51 282 5.0 10.0 0.00 0.00 0.00 44 1008.4
20260503211550 52 257 3.0 3.0 0.00 0.00 0.00 44 1008.4
20260503211045 52 241 6.0 7.0 0.00 0.00 0.00 43 1008.5
20260503210543 52 239 2.0 3.0 0.00 0.00 0.00 43 1008.5
20260503210038 52 231 5.0 7.0 0.00 0.00 0.00 42 1008.5
20260503205535 52 245 6.0 8.0 0.00 0.00 0.00 40 1008.7
20260503205032 53 256 1.0 2.0 0.00 0.00 0.00 39 1008.5
20260503204529 53 260 4.0 6.0 0.00 0.00 0.00 41 1008.7
20260503204026 53 265 0.0 0.0 0.00 0.00 0.00 40 1008.8
20260503203523 53 258 2.0 2.0 0.00 0.00 0.00 45 1008.7
20260503203020 53 274 1.0 1.0 0.00 0.00 0.00 42 1008.8
20260503202518 53 255 2.0 3.0 0.00 0.00 0.00 41 1008.8
20260503202015 54 267 3.0 4.0 0.00 0.00 0.00 39 1008.8
20260503201514 53 318 4.0 6.0 0.00 0.00 0.00 38 1008.6
20260503201010 53 245 3.0 3.0 0.00 0.00 0.00 39 1008.7
20260503200507 53 255 6.0 7.0 0.00 0.00 0.00 36 1008.7
20260503200003 55 236 4.0 4.0 0.00 0.00 0.00 37 1008.9
20260503195500 55 272 2.0 2.0 0.00 0.00 0.00 38 1008.8
20260503194957 54 287 1.0 2.0 0.00 0.00 0.00 37 1008.8
20260503194455 54 238 5.0 10.0 0.00 0.00 0.00 36 1009.1
20260503193949 53 282 2.0 6.0 0.00 0.00 0.00 38 1009.1
20260503193445 56 276 2.0 2.0 0.00 0.00 0.00 36 1009.2
20260503192940 55 265 1.0 2.0 0.00 0.00 0.00 40 1009.2
20260503192437 53 251 4.0 6.0 0.00 0.00 0.00 42 1009.2
20260503191933 53 259 1.0 1.0 0.00 0.00 0.00 38 1009.2
20260503191431 55 257 2.0 3.0 0.00 0.00 0.00 37 1009.3
20260503190927 53 248 4.0 6.0 0.00 0.00 0.00 39 1009.1
20260503190425 52 274 4.0 6.0 0.00 0.00 0.00 38 1009.3
20260503185921 53 254 2.0 3.0 0.00 0.00 0.00 41 1009.3
20260503185418 53 259 0.0 0.0 0.00 0.00 0.00 39 1009.5
20260503184916 54 250 0.0 2.0 0.00 0.00 0.00 47 1009.4
20260503184414 52 252 2.0 4.0 0.00 0.00 0.00 42 1009.6
20260503183910 51 240 2.0 4.0 0.00 0.00 0.00 43 1009.4
20260503183407 53 254 2.0 3.0 0.00 0.00 0.00 42 1009.6
20260503182904 55 239 4.0 6.0 0.00 0.00 0.00 44 1009.5
20260503182403 54 277 1.0 2.0 0.00 0.00 0.00 41 1009.6
20260503181859 55 321 0.0 1.0 0.00 0.00 0.00 44 1009.5
20260503181356 53 247 3.0 4.0 0.00 0.00 0.00 42 1009.6
20260503180853 54 248 3.0 7.0 0.00 0.00 0.00 40 1009.6
20260503180351 53 231 4.0 4.0 0.00 0.00 0.00 39 1009.6
20260503175847 54 271 0.0 1.0 0.00 0.00 0.00 40 1009.7
20260503175345 53 257 1.0 1.0 0.00 0.00 0.00 44 1009.6
20260503174841 51 266 0.0 0.0 0.00 0.00 0.00 42 1009.9
20260503174340 51 301 0.0 0.0 0.00 0.00 0.00 41 1009.8
20260503173839 52 262 0.0 1.0 0.00 0.00 0.00 41 1009.9
20260503173336 52 260 2.0 2.0 0.00 0.00 0.00 42 1010.2
20260503172833 52 270 0.0 1.0 0.00 0.00 0.00 39 1010.0
20260503172331 52 281 1.0 2.0 0.00 0.00 0.00 41 1010.0
20260503171826 53 281 0.0 0.0 0.00 0.00 0.00 37 1010.2
20260503171324 53 261 0.0 1.0 0.00 0.00 0.00 38 1009.9
20260503170821 51 259 2.0 3.0 0.00 0.00 0.00 45 1010.2
20260503170317 50 270 0.0 0.0 0.00 0.00 0.00 41 1010.0
20260503150710 51 253 3.0 6.0 0.00 0.00 0.00 46 1011.3
20260503150206 51 249 2.0 4.0 0.00 0.00 0.00 51 1011.3
20260503140130 49 251 1.0 2.0 0.00 0.00 0.00 47 1011.9
20260503131059 46 251 1.0 1.0 0.00 0.00 0.00 61 1012.3
20260503130556 46 256 1.0 2.0 0.00 0.00 0.00 59 1012.6
20260503110447 38 242 0.0 0.0 0.00 0.00 0.00 89 1011.1
20260503090338 37 241 0.0 0.0 0.00 0.00 0.00 94 1011.1
20260503081306 37 241 0.0 0.0 0.00 0.00 0.00 95 1011.1
20260503080801 37 241 0.0 0.0 0.00 0.00 0.00 95 1011.1
20260503080259 37 241 0.0 0.0 0.00 0.00 0.00 95 1011.3
20260503072736 37 242 0.0 0.0 0.00 0.00 0.00 94 1011.2
20260503072232 37 242 0.0 0.0 0.00 0.00 0.00 94 1011.2
20260503071729 37 241 0.0 0.0 0.00 0.00 0.00 93 1011.1
20260503071226 38 242 0.0 0.0 0.00 0.00 0.00 93 1011.1
20260503070722 38 241 0.0 0.0 0.00 0.00 0.00 93 1011.1
20260503070220 38 242 0.0 0.0 0.00 0.00 0.00 93 1011.1
20260503060145 38 242 0.0 0.0 0.00 0.00 0.00 92 1011.5
20260503054632 39 242 0.0 0.0 0.00 0.00 0.00 91 1011.6
20260503054129 39 242 0.0 0.0 0.00 0.00 0.00 91 1011.5
20260503053627 39 242 0.0 0.0 0.00 0.00 0.00 92 1011.6
20260503053126 39 242 0.0 0.0 0.00 0.00 0.00 92 1011.6
20260503052622 39 242 0.0 0.0 0.00 0.00 0.00 92 1011.6
20260503052118 39 242 0.0 0.0 0.00 0.00 0.00 92 1011.6
20260503051614 39 242 0.0 0.0 0.00 0.00 0.00 92 1011.7
20260503051112 39 242 0.0 0.0 0.00 0.00 0.00 92 1011.8
20260503050608 39 242 0.0 0.0 0.00 0.00 0.00 92 1011.8